Regional Weather Roundup
Issued by NWS State College, PA

Home | Current Version | Previous Version | Graphics & Text | Print | Product List | Glossary On
Versions: 1 2 3 4 5 6 7 8 9 10 11 12 13 14 15 16 17 18 19 20 21 22 23 24 25 26 27 28 29 30 31 32 33 34 35 36 37 38 39 40 41 42 43 44 45 46 47 48 49 50
000
ASUS41 KCTP 020203
RWRCTP

REGIONAL WEATHER ROUNDUP
NATIONAL WEATHER SERVICE STATE COLLEGE PA
1000 PM EDT MON SEP 01 2014

Note: "fair" indicates few or no clouds below 12,000 feet with no
significant weather and/or obstructions to visibility.

* = STATION THAT DOES NOT REPORT PRECIPITATION /E.G. RAIN...SNOW...ETC/
    THUNDER OR FOG.

PAZ002>004-007>009-013>016-020>023-029>032-020300-
WESTERN PENNSYLVANIA

CITY           SKY/WX    TMP DP  RH WIND       PRES   REMARKS
ERIE           MOCLDY    78  68  71 S13       29.86S
MEADVILLE      PTCLDY    73  68  84 VRB5      29.94R
FRANKLIN*      PTCLDY    72  66  83 S10       29.97R
NEW CASTLE     FAIR      75  71  87 CALM      29.94R
BEAVER COUNTY  NOT AVBL
BUTLER*        PTCLDY    73  68  83 S6        29.98S
PITTSBURGH INT MOCLDY    75  70  84 S8        29.96R
PITTSBURGH     PTCLDY    73  68  84 S7        29.97R
INDIANA*       CLOUDY    73  70  88 CALM      30.03R
LATROBE        PTCLDY    75  72  88 SW12      29.98
WASHINGTON CO* PTCLDY    72  70  94 S3        29.99R
$$

PAZ004>006-010>012-017>019-024>028-033>037-041-042-045-046-049>053-020300-
CENTRAL PENNSYLVANIA

CITY           SKY/WX    TMP DP  RH WIND       PRES   REMARKS
BRADFORD       MOCLDY    71  67  87 SW8       30.00R
DUBOIS         PTCLDY    71  68  90 SW3       29.99R
CLEARFIELD     CLEAR     70  68  93 SW3       30.00R
JOHNSTOWN      MOCLDY    72  66  81 SW8       30.05R
ALTOONA        MOCLDY    74  68  81 S8        30.02R
STATE COLLEGE  MOCLDY    74  71  90 SW3       29.99R
WILLIAMSPORT   CLOUDY    75  70  84 CALM      29.94R
SELINSGROVE    MOCLDY    73  71  93 NW3       29.96R
FT INDIANTOWN  MOCLDY    73  73 100 E1        29.98R
CAPITAL CITY   PTCLDY    75  71  87 CALM      29.96R
HARRISBURG     MOCLDY    77  73  87 SE6       29.96R
YORK           PTCLDY    77  72  84 S6        29.97R
$$

PAZ038>040-043-044-047-048-054-055-060>062-067>071-020300-
EASTERN PENNSYLVANIA

CITY           SKY/WX    TMP DP  RH WIND       PRES   REMARKS
SCRANTON       CLEAR     75  69  81 CALM      29.98R
MOUNT POCONO   PTCLDY    71  67  87 W5        30.04R
ALLENTOWN      MOCLDY    78  71  79 SW6       29.96R
QUAKERTOWN*    PTCLDY    77  72  83 MISG      29.99S
READING        PTCLDY    77  72  84 CALM      29.96R
LANCASTER      CLEAR     74  72  93 CALM      29.97S
COATESVILLE    MOCLDY    75  75 100 CALM      29.99S
POTTSTOWN      PTCLDY    76  73  91 CALM      29.98S
BLUE BELL      PTCLDY    79  73  83 CALM      29.96S
DOYLESTOWN     PTCLDY    77  72  84 S5        29.96R
WILLOW GROVE   NOT AVBL
NORTH PHILA    PTCLDY    82  72  71 SW5       29.97R
PHILADELPHIA   MOCLDY    81  73  76 S7        29.95S
$$


USA.gov is the U.S. government's official web portal to all federal, state and local government web resources and services.